Home   Weather   Salisbury   Past weeks

Flag for United Kingdom Past Weather in Salisbury, England, United Kingdom — Yesterday and Last 2 Weeks

Now
66 °F

Partly sunny.


Feels Like: 66 °F
Forecast: 53 / 63 °F
Wind: 16 mph from Southwest

Location: Boscombe Down

Current Time: Sep 28, 2016 at 4:33:24 PM

Latest Report: Sep 28, 2016 at 3:50 PM


Visibility: N/A

Pressure: 30.24 "Hg

Humidity: 83%

Dew Point: 61 °F

Location of SalisburyLocation

Past Weather in Salisbury — Graph

°F

Salisbury Temperature Yesterday

Maximum temperature yesterday: 64 °F (at 11:50 AM)
Minimum temperature yesterday: 54 °F (at 10:50 PM)
Average temperature yesterday: 60 °F

High & Low Weather Summary for the Past Weeks

 TemperatureHumidityPressure
High77 °F (Sep 15, 1:50 PM)100% (Sep 15, 1:50 AM)30.30 "Hg (Sep 15, 1:50 AM)
Low45 °F (Sep 23, 6:50 AM)49% (Sep 16, 2:50 PM)29.74 "Hg (Sep 13, 5:50 PM)
Average59 °F83%30.06 "Hg
* Reported Sep 13 2:50 PM — Sep 28 2:50 PM, Salisbury, Weather by CustomWeather, © 2016

Note: Actual official high and low records may vary slightly from our data, if they occured in-between our weather recording intervals... More about our weather records

Advertising

Salisbury Weather History for the Previous 24 Hours

Scroll right to see more
 ConditionsComfort  
Time TempWeatherWind HumidityBarometerVisibility
2:50 PM
Wed, Sep 28
70 °FPartly sunny.16 mph69%30.24 "HgN/A
1:50 PM68 °FPartly sunny.14 mph73%30.27 "HgN/A
12:50 PM68 °FScattered clouds.15 mph73%30.27 "HgN/A
11:50 AM64 °FScattered clouds.10 mph78%30.27 "HgN/A
10:50 AM61 °FPartly sunny.8 mph77%30.30 "HgN/A
9:50 AM59 °FPassing clouds.12 mph82%30.27 "HgN/A
8:50 AM54 °FFog.7 mph100%30.27 "Hg5 mi
7:50 AM50 °FFog.7 mph100%30.27 "Hg4 mi
6:50 AM48 °FFog.7 mph100%30.27 "Hg5 mi
5:50 AM48 °FFog.3 mph100%30.27 "Hg3 mi
4:50 AM50 °FFog.5 mph100%30.27 "Hg4 mi
3:50 AM52 °FFog.9 mph94%30.27 "Hg5 mi
2:50 AM54 °FFog.10 mph94%30.27 "Hg5 mi
1:50 AM52 °FFog.9 mph100%30.27 "Hg5 mi
12:50 AM52 °FFog.7 mph100%30.27 "Hg3 mi
11:50 PM
Tue, Sep 27
54 °FFog.8 mph94%30.27 "Hg4 mi
10:50 PM54 °FFog.7 mph94%30.27 "Hg6 mi
9:50 PM57 °FPassing clouds.7 mph88%30.27 "HgN/A
8:50 PM61 °FPassing clouds.12 mph88%30.24 "HgN/A
7:50 PM63 °FPassing clouds.10 mph88%30.24 "HgN/A
6:50 PM63 °FPartly sunny.6 mph94%30.21 "HgN/A
5:50 PM64 °FDrizzle. Partly sunny.7 mph88%30.21 "HgN/A
4:50 PM64 °FPartly sunny.12 mph88%30.18 "HgN/A
Weather by CustomWeather, © 2016

See weather overviewHow to use our weather pages